Home > Weather > Mount Pearl > Past weeks

Flag for Canada Past Weather in Mount Pearl, Newfoundland and Labrador, Canada — Yesterday and Last 2 Weeks

Now
64 °F

Mostly cloudy.


Feels Like: 64 °F
Forecast: 57 / 70 °F
Wind: 6 mph from South

Location: St. John's

Current Time: Jul 27, 2016 at 11:03:14 AM

Latest Report: Jul 27, 2016 at 10:30 AM


Visibility: 15 mi

Pressure: 29.99 "Hg

Humidity: 94%

Dew Point: 63 °F

Location of Mount PearlLocation

Past Weather in Mount Pearl — Graph

°F

Mount Pearl Temperature Yesterday

Maximum temperature yesterday: 66 °F (at 4:30 PM)
Minimum temperature yesterday: 57 °F (at 12:30 AM)
Average temperature yesterday: 60 °F

High & Low Weather Summary for the Past Weeks

 TemperatureHumidityPressure
High79 °F (Jul 22, 3:30 PM)100% (Jul 12, 9:30 AM)30.17 "Hg (Jul 12, 9:30 AM)
Low41 °F (Jul 13, 11:30 PM)39% (Jul 17, 10:30 AM)29.44 "Hg (Jul 12, 9:30 AM)
Average63 °F83%29.92 "Hg
* Reported Jul 12 9:30 AM — Jul 27 9:30 AM, Mount Pearl, Weather by CustomWeather, © 2016

Note: Actual official high and low records may vary slightly from our data, if they occured in-between our weather recording intervals... More about our weather records

Advertising

Mount Pearl Weather History for the Previous 24 Hours

Scroll right to see more
 ConditionsComfort  
Time TempWeatherWind HumidityBarometerVisibility
9:30 AM
Wed, Jul 27
63 °FSprinkles. Mostly cloudy.6 mph94%29.98 "Hg15 mi
8:30 AM61 °FMostly cloudy.5 mph100%29.99 "Hg15 mi
7:30 AM59 °FMostly cloudy.6 mph94%29.98 "Hg12 mi
6:30 AM57 °FSprinkles. Mostly cloudy.8 mph94%29.99 "Hg10 mi
5:30 AM57 °FMostly cloudy.No wind94%29.96 "Hg15 mi
5:18 AM57 °FMostly cloudy.3 mph94%29.97 "Hg15 mi
4:30 AM57 °FLow clouds.8 mph94%29.97 "Hg15 mi
3:30 AM57 °FCool.6 mph88%29.97 "Hg15 mi
2:30 AM57 °FMostly cloudy.2 mph88%29.98 "Hg15 mi
1:30 AM55 °FMostly cloudy.6 mph94%29.98 "Hg15 mi
12:30 AM59 °FMostly cloudy.No wind82%29.98 "Hg15 mi
11:30 PM
Tue, Jul 26
59 °FMostly cloudy.6 mph77%29.99 "Hg15 mi
10:30 PM59 °FMostly cloudy.8 mph72%29.99 "Hg15 mi
9:30 PM59 °FMostly cloudy.9 mph88%29.99 "Hg15 mi
8:30 PM59 °FCloudy.7 mph88%29.98 "Hg15 mi
7:30 PM57 °FMostly cloudy.6 mph94%29.98 "Hg10 mi
6:30 PM57 °FFog.7 mph100%29.98 "Hg1 mi
5:30 PM64 °FLow clouds.9 mph88%29.97 "Hg15 mi
4:30 PM66 °FLow clouds.8 mph83%29.97 "Hg15 mi
3:30 PM64 °FMore clouds than sun.9 mph88%29.98 "Hg12 mi
2:30 PM63 °FLow clouds.9 mph88%29.98 "Hg15 mi
1:30 PM64 °FLow clouds.7 mph83%29.98 "Hg15 mi
12:30 PM63 °FLow clouds.7 mph88%29.98 "Hg8 mi
11:30 AM61 °FFog.5 mph100%29.99 "Hg1 mi
Weather by CustomWeather, © 2016

See weather overviewHow to use our weather pages